Tracking 22836 objects as of 18-Apr-2021
HD Live streaming from Space Station
objects crossing your sky now

OPS 1948

Track OPS 1948 now!
OPS 1948 is classified as:


NORAD ID: 11558
Int'l Code: 1979-086A
Perigee: 30,430.6 km
Apogee: 41,169.8 km
Inclination: 5.9 °
Period: 1,436.4 minutes
Semi major axis: 42171 km
RCS: Unknown
Launch date: October 1, 1979
Source: United States (US)
Launch site: AIR FORCE EASTERN TEST RANGE (AFETR)
aabbcc
Your satellite tracking list
Your tracking list is empty




NASA's NSSDC Master Catalog

Two Line Element Set (TLE):
1 11558U 79086A   21107.61295264 -.00000152  00000-0  00000-0 0  9995
2 11558   5.8575 355.5290 1273285  60.7616 173.5176  1.00248591  7305
Source of the keplerian elements: McCants